Location: Helensbirgh
(56.0153°N, 4.7348°W)
Time: 22:39:34
(UTC+00:00)

Envisat - Pass Details

Date: 23 October 2019
Orbit: 764 x 766 km, 98.1° (Epoch: 21 November)

Event Time Altitude Azimuth Distance (km) Brightness Sun altitude
Rises 20:00:35 0° 191° (S) 3,225 6.3 -17.5°
Reaches altitude 10° 20:03:05 10° 200° (SSW) 2,303 5.6 -17.9°
Maximum altitude 20:07:42 34° 266° (W) 1,247 4.7 -18.5°
Drops below altitude 10° 20:12:20 10° 331° (NNW) 2,318 6.0 -19.1°
Sets 20:14:52 0° 340° (NNW) 3,248 6.6 -19.5°
